Terminal Aerodrome Forecast
Issued by NWS Sterling, VA

Home | Current Version | Previous Version | Text Only | Print | Product List | Glossary On
Versions: 1 2 3 4 5 6 7 8 9 10 11 12
000
FTUS41 KLWX 312300
TAFCHO
TAF
KCHO 312320Z 0100/0124 18004KT P6SM SCT050
     FM010300 00000KT P6SM BKN050 BKN100
     FM010900 VRB03KT 5SM -SHRA BKN050 OVC100
     FM011500 VRB03KT 6SM -SHRA BKN050 OVC100=

USA.gov is the U.S. government's official web portal to all federal, state and local government web resources and services.